CYGFM06 (41889 NORAD) Tracking and Keplerian Element Data

This shows tracking and keplerian element data for the satellite.

Feedback or suggestion? Click here.




ElementValue
Catalog41889
NameCYGFM06
Epoch Orbit11107
Epoch Day351.85711798
Epoch Year2018
RAAN216.7121
Inclination34.9572
Eccentricity0.0014454
Argument of Perigee202.9443
Mean Anonmoly157.0623
Mean Motion15.1476513
Decay Rate2.42E-06
L11 41889U 16078F 18351.85711798 .00000242 00000-0 14445-4 0 9996
L22 41889 34.9572 216.7121 0014454 202.9443 157.0623 15.14765130111071

Live tracking and technical data element details for CYGFM06 (NORAD 41889). CYGFM06 can be tracked NOW for your location showing map with azimuth and elevation plus other details from your city location.

Track the satellite on the map from your city or location and see movement details for azimuth, elevation, latitude, longitude, range, height, and movement on the map or in text.







IsCatalogInMostPopularTable: catalog: 41889, numindb: 126
Update: records affected: 1



GetName: 41889 CYGFM06

Hit Count: updated at: Tue, 18 Dec 2018 22:12:49 GMT